Location: Montr�al
(45.5000°N, 73.5830°W)
Time: 08:57:30
(UTC-05:00)

ISS - Visible Passes

Search period start: 30 January 2015 00:00
Search period end: 09 February 2015 00:00
Orbit: 401 x 408 km, 51.6° (Epoch: 29 January)

Date Brightness Start Highest point End Pass type
(mag) Time Alt. Az. Time Alt. Az. Time Alt. Az.
04 Feb -1.3 18:32:20 10° S 18:33:56 16° SSE 18:33:56 16° SSE visible
05 Feb -1.7 19:14:59 10° SW 19:16:48 30° SW 19:16:48 30° SW visible
06 Feb -2.5 18:22:54 10° SSW 18:25:53 34° SE 18:26:53 27° ESE visible
06 Feb 0.0 19:59:08 10° W 19:59:32 13° W 19:59:32 13° W visible
07 Feb -2.9 19:06:33 10° WSW 19:09:30 62° WNW 19:09:30 62° WNW visible
08 Feb -3.4 18:14:07 10° SW 18:17:22 73° SSE 18:19:23 21° ENE visible
08 Feb -0.4 19:51:03 10° WNW 19:52:02 17° WNW 19:52:02 17° WNW visible
